Retour au catalogue

NOAA 16 DEB

ActifPO
NORAD 41091·DEBRIS·🇺🇸 United States

Lancé Sep 21, 2000 depuis Vandenberg Space Force Base

Loading…

Prochains Passages (prochaines 24 heures)

TLE

FraisSource: Space-Track

Époque: Sep 14, 2026, 08:07 UTC

1 41091U 00055BA  26257.33821281  .00005524  00000-0  17964-2 0  9990
2 41091  98.9695  31.2679 0036620 266.0873  93.6126 14.38828543556302

Suivez NOAA 16 DEB en temps réel avec AllMySat

Download on the App Store